Location: Asheville, NC
(35.6000°N, 82.5500°W)
Time: 20:21:45

NO-84 - Pass Details

Date: 17 March 2018
Orbit: 339 x 558 km, 55.0° (Epoch: 15 March)

Event Time Altitude Azimuth Distance (km) Brightness Sun altitude
Rises 20:56:53 0° 204° (SSW) 2,655 ? -16.5°
Reaches altitude 10° 20:59:09 10° 197° (SSW) 1,791 ? -16.9°
Maximum altitude 21:02:59 40° 127° (SE) 824 ? -17.7°
Enters shadow 21:03:17 39° 116° (ESE) 835 ? -17.7°
